Location: Krakow
(50.0212°N, 19.9423°E)
Time: 19:50:03
(UTC+02:00)

UWE-3 - Pass Details

Date: 25 April 2024
Orbit: 569 x 652 km, 97.8° (Epoch: 19 May)

Event Time Altitude Azimuth Distance (km) Brightness Sun altitude
Rises 03:38:22 0° 11° (N) 2,855 ? -15.4°
Reaches altitude 10° 03:40:31 10° 9° (N) 1,961 ? -15.1°
Maximum altitude 03:44:45 67° 287° (WNW) 670 ? -14.6°
Enters shadow 03:47:28 22° 209° (SSW) 1,363 ? -14.3°
